DW9395 Weather Reports


time (UTC)temp
C
wind
direction
speed
KPH
gust
KPH
rain 1hr
cm
rain 24hr
cm
rain mn
cm
humidity
%
barometer
mb
20260903023541 20 0.0 0.0 0.00 0.03 0.03 100 1013.3
20260903023040 20 0.0 0.0 0.00 0.03 0.03 100 1013.2
20260903022538 20 0.0 0.0 0.00 0.03 0.03 100 1013.2
20260903022036 20 0.0 0.0 0.00 0.03 0.03 8 1013.2
20260903021536 20 0.0 0.0 0.00 0.03 0.03 26 1013.2
20260903021035 21 0.0 0.0 0.00 0.03 0.03 40 1013.2
20260903020532 21 0.0 0.0 0.00 0.03 0.03 49 1013.1
20260903020032 21 0.0 0.0 0.00 0.03 0.03 54 1013.0
20260903015533 21 0.0 0.0 0.00 0.03 0.03 56 1013.1
20260903015030 21 0.0 0.0 0.00 0.03 0.03 57 1013.1
20260903014527 21 0.0 0.0 0.00 0.03 0.03 57 1013.2
20260903014027 21 0.0 0.0 0.00 0.03 0.03 57 1013.2
20260903013528 21 0.0 0.0 0.00 0.03 0.03 56 1013.2
20260903013023 22 0.0 0.0 0.00 0.03 0.03 53 1013.3
20260903012520 22 0.0 0.0 0.00 0.03 0.03 51 1013.3
20260903012019 22 0.0 0.0 0.00 0.03 0.03 52 1013.3
20260903011519 22 0.0 0.0 0.00 0.03 0.03 51 1013.3
20260903011015 23 0.0 0.0 0.00 0.03 0.03 52 1013.3
20260903010515 23 0.0 0.0 0.00 0.03 0.03 52 1013.2
20260903010014 23 0.0 0.0 0.00 0.03 0.03 51 1013.3
20260903005512 23 0.0 0.0 0.00 0.03 0.03 51 1013.3
20260903000200 23 0.0 0.0 0.00 0.03 0.03 50 1013.3
20260902235556 23 0.0 0.0 0.00 0.03 0.03 50 1013.2
20260902235508 23 0.0 0.0 0.00 0.03 0.03 50 1013.3
20260902234051 23 0.0 0.0 0.00 0.03 0.03 50 1013.4
20260902233651 24 0.0 0.0 0.00 0.03 0.03 49 1013.5
20260902211544 24 0.0 0.0 0.00 0.03 0.03 51 1014.4
20260902211042 24 0.0 0.0 0.00 0.03 0.03 50 1014.4
20260902210541 24 0.0 0.0 0.00 0.03 0.03 51 1014.5
20260902210040 24 0.0 0.0 0.00 0.03 0.03 51 1014.5
20260902205538 24 0.0 0.0 0.00 0.03 0.03 51 1014.5
20260902205037 24 0.0 0.0 0.00 0.03 0.03 51 1014.5
20260902204539 24 0.0 0.0 0.00 0.03 0.03 51 1014.6
20260902204034 24 0.0 0.0 0.00 0.03 0.03 51 1014.7
20260902203532 24 0.0 0.0 0.00 0.03 0.03 51 1014.7
20260902203033 24 0.0 0.0 0.00 0.03 0.03 51 1014.7
20260902202532 25 0.0 0.0 0.00 0.03 0.03 51 1014.6
20260902202031 25 0.0 0.0 0.00 0.03 0.03 51 1014.7
20260902201527 25 0.0 0.0 0.00 0.03 0.03 51 1014.7
20260902201026 25 0.0 0.0 0.00 0.03 0.03 51 1014.8
20260902200527 25 0.0 0.0 0.00 0.03 0.03 50 1014.8
20260902200040 25 0.0 0.0 0.00 0.03 0.03 50 1014.8
20260902195520 24 0.0 0.0 0.00 0.03 0.03 51 1015.0
20260902195019 24 0.0 0.0 0.00 0.03 0.03 51 1015.0
20260902194522 24 0.0 0.0 0.00 0.03 0.03 51 1015.0
20260902194017 24 0.0 0.0 0.00 0.03 0.03 51 1015.0
20260902193516 25 0.0 0.0 0.00 0.03 0.03 51 1015.1
20260902193015 25 0.0 0.0 0.00 0.03 0.03 50 1015.1
20260902192512 25 0.0 0.0 0.00 0.03 0.03 50 1015.1
20260902192012 24 0.0 0.0 0.00 0.03 0.03 50 1015.1
20260902191509 24 0.0 0.0 0.00 0.03 0.03 50 1015.2
20260902191007 24 0.0 0.0 0.00 0.03 0.03 49 1015.2
20260902190507 24 0.0 0.0 0.00 0.03 0.03 49 1015.2
20260902190005 24 0.0 0.0 0.00 0.03 0.03 48 1015.2
20260902185503 24 0.0 0.0 0.00 0.03 0.03 48 1015.3
20260902185004 23 0.0 0.0 0.00 0.03 0.03 48 1015.3
20260902184502 24 0.0 0.0 0.00 0.03 0.03 49 1015.3
20260902184101 24 0.0 0.0 0.00 0.03 0.03 49 1015.2
20260902183602 24 0.0 0.0 0.00 0.03 0.03 48 1015.3
20260902183107 23 0.0 0.0 0.00 0.03 0.03 48 1015.3
20260902182555 23 0.0 0.0 0.00 0.03 0.03 48 1015.4
20260902182054 23 0.0 0.0 0.00 0.03 0.03 48 1015.4
20260902181550 23 0.0 0.0 0.00 0.03 0.03 48 1015.4
20260902181149 23 0.0 0.0 0.00 0.03 0.03 48 1015.4
20260902170533 23 360 0.0 0.0 0.00 0.03 0.03 51 1015.3
20260902170030 23 360 0.0 0.0 0.00 0.03 0.03 50 1015.3
20260902165528 23 360 0.0 0.0 0.00 0.03 0.03 50 1015.2
20260902165026 23 360 0.0 0.0 0.00 0.03 0.03 50 1015.2
20260902164510 22 360 0.0 0.0 0.00 0.03 0.03 50 1015.2
20260902164005 22 360 0.0 0.0 0.00 0.03 0.03 49 1015.2
20260902163503 22 360 0.0 0.0 0.00 0.03 0.03 49 1015.1
20260902163102 22 360 0.0 0.0 0.00 0.03 0.03 48 1015.2
20260902160635 21 360 0.0 0.0 0.00 0.03 0.03 37 1015.2
20260902150039 17 360 0.0 0.0 0.00 0.03 0.03 100 1015.5
20260902145024 17 360 0.0 0.0 0.00 0.03 0.03 100 1015.4
20260902144522 16 360 0.0 0.0 0.00 0.03 0.03 100 1015.3
20260902144024 16 360 0.0 0.0 0.00 0.03 0.03 100 1015.3
20260902143520 16 360 0.0 0.0 0.00 0.03 0.03 100 1015.3
20260902143018 15 360 0.0 0.0 0.00 0.03 0.03 100 1015.3
20260902142517 15 360 0.0 0.0 0.00 0.03 0.03 100 1015.3
20260902142016 15 360 0.0 0.0 0.00 0.03 0.03 100 1015.3
20260902141518 15 360 0.0 0.0 0.00 0.03 0.03 100 1015.3
20260902141015 15 360 0.0 0.0 0.00 0.03 0.03 100 1015.2
20260902140511 14 360 0.0 0.0 0.00 0.03 0.03 100 1015.2
20260902140011 14 360 0.0 0.0 0.00 0.03 0.03 100 1015.1
20260902135507 14 360 0.0 0.0 0.00 0.03 0.03 100 1015.0
20260902135006 13 360 0.0 0.0 0.00 0.03 0.03 100 1014.9
20260902134506 13 360 0.0 0.0 0.00 0.03 0.03 100 1014.8
20260902134004 13 360 0.0 0.0 0.00 0.03 0.03 100 1014.9
20260902133502 13 360 0.0 0.0 0.00 0.03 0.03 100 1014.9
20260902133001 13 360 0.0 0.0 0.00 0.03 0.03 100 1014.9
20260902132603 13 360 0.0 0.0 0.00 0.03 0.03 100 1014.8
20260902132058 13 360 0.0 0.0 0.00 0.03 0.03 100 1014.8
20260902131605 13 360 0.0 0.0 0.00 0.03 0.03 100 1014.8
20260902131055 13 360 0.0 0.0 0.00 0.03 0.03 100 1014.8
20260902130553 12 360 0.0 0.0 0.00 0.03 0.03 100 1014.8
20260902130053 12 360 0.0 0.0 0.00 0.03 0.03 100 1014.8
20260902125550 13 360 0.0 0.0 0.00 0.03 0.03 100 1014.8
20260902125049 13 360 0.0 0.0 0.00 0.03 0.03 100 1014.8
20260902124558 13 360 0.0 0.0 0.00 0.03 0.03 100 1014.8
20260902124050 13 360 0.0 0.0 0.00 0.03 0.03 100 1014.7
20260902123545 13 360 0.0 0.0 0.00 0.03 0.03 100 1014.7
20260902123046 13 360 0.0 0.0 0.03 0.03 0.03 100 1014.7
20260902122543 13 360 0.0 0.0 0.03 0.03 0.03 100 1014.7
20260902122040 13 360 0.0 0.0 0.03 0.03 0.03 100 1014.7
20260902121539 13 360 0.0 0.0 0.03 0.03 0.03 100 1014.6
20260902121038 13 360 0.0 0.0 0.03 0.03 0.03 100 1014.7
20260902120536 13 360 0.0 0.0 0.03 0.03 0.03 100 1014.7
20260902120035 13 360 0.0 0.0 0.03 0.03 0.03 100 1014.6
20260902115533 13 360 0.0 0.0 0.03 0.03 0.03 100 1014.6
20260902115032 13 360 0.0 0.0 0.03 0.03 0.03 100 1014.6
20260902114535 13 360 0.0 0.0 0.03 0.03 0.03 100 1014.6
20260902114029 13 360 0.0 0.0 0.03 0.03 0.03 100 1014.7
20260902113528 13 360 0.0 0.0 0.03 0.03 0.03 100 1014.8
20260902113027 13 360 0.0 0.0 0.00 0.00 0.00 100 1014.8
20260902112525 12 360 0.0 0.0 0.00 0.00 0.00 100 1014.8
20260902112024 12 360 0.0 0.0 0.00 0.00 0.00 100 1014.7
20260902111531 12 360 0.0 0.0 0.00 0.00 0.00 100 1014.6
20260902111025 12 360 0.0 0.0 0.00 0.00 0.00 100 1014.6
20260902110520 12 360 0.0 0.0 0.00 0.00 0.00 100 1014.6
20260902110018 12 360 0.0 0.0 0.00 0.00 0.00 100 1014.6
20260902105519 12 360 0.0 0.0 0.00 0.00 0.00 100 1014.6
20260902105014 12 360 0.0 0.0 0.00 0.00 0.00 100 1014.7
20260902104515 12 360 0.0 0.0 0.00 0.00 0.00 100 1014.6
20260902104013 12 360 0.0 0.0 0.00 0.00 0.00 100 1014.6
20260902103510 12 360 0.0 0.0 0.00 0.00 0.00 100 1014.7
20260902103009 12 360 0.0 0.0 0.00 0.00 0.00 100 1014.7
20260902102509 12 360 0.0 0.0 0.00 0.00 0.00 100 1014.7
20260902102006 13 360 0.0 0.0 0.00 0.00 0.00 100 1014.7
20260902101503 13 360 0.0 0.0 0.00 0.00 0.00 100 1014.7
20260902101003 13 360 0.0 0.0 0.00 0.00 0.00 100 1014.6
20260902100501 13 360 0.0 0.0 0.00 0.00 0.00 100 1014.7
20260902100100 13 360 0.0 0.0 0.00 0.00 0.00 100 1014.7
20260902095603 13 360 0.0 0.0 0.00 0.00 0.00 100 1014.7
20260902095056 13 360 0.0 0.0 0.00 0.00 0.00 100 1014.8
20260902094556 13 360 0.0 0.0 0.00 0.00 0.00 100 1014.8
20260902094054 13 360 0.0 0.0 0.00 0.00 0.00 100 1014.7
20260902093555 13 360 0.0 0.0 0.00 0.00 0.00 100 1014.7
20260902093051 13 360 0.0 0.0 0.00 0.00 0.00 100 1014.6
20260902092553 13 360 0.0 0.0 0.00 0.00 0.00 100 1014.6
20260902092049 13 360 0.0 0.0 0.00 0.00 0.00 100 1014.7
20260902091550 13 360 0.0 0.0 0.00 0.00 0.00 100 1014.8
20260902091045 13 360 0.0 0.0 0.00 0.00 0.00 100 1014.8
20260902090547 13 360 0.0 0.0 0.00 0.00 0.00 100 1014.9
20260902090042 13 360 0.0 0.0 0.00 0.00 0.00 100 1014.9
20260902085545 13 360 0.0 0.0 0.00 0.00 0.00 100 1014.9
20260902085040 13 360 0.0 0.0 0.00 0.00 0.00 100 1014.9
20260902084538 13 360 0.0 0.0 0.00 0.00 0.00 100 1014.9
20260902084037 13 360 0.0 0.0 0.00 0.00 0.00 100 1014.9
20260902083534 13 360 0.0 0.0 0.00 0.00 0.00 100 1014.9
20260902083034 13 360 0.0 0.0 0.00 0.00 0.00 100 1014.9
20260902082532 13 360 0.0 0.0 0.00 0.00 0.00 100 1014.8
20260902082031 13 360 0.0 0.0 0.00 0.00 0.00 100 1014.8
20260902081529 14 360 0.0 0.0 0.00 0.00 0.00 100 1014.8
20260902081028 14 360 0.0 0.0 0.00 0.00 0.00 100 1014.7
20260902080526 14 360 0.0 0.0 0.00 0.00 0.00 100 1014.8
20260902080026 14 360 0.0 0.0 0.00 0.00 0.00 100 1014.8
20260902075524 14 360 0.0 0.0 0.00 0.00 0.00 100 1014.8
20260902075021 14 360 0.0 0.0 0.00 0.00 0.00 100 1014.8
20260902074519 14 360 0.0 0.0 0.00 0.00 0.00 100 1014.8
20260902074018 14 360 0.0 0.0 0.00 0.00 0.00 100 1014.8
20260902073520 14 360 0.0 0.0 0.00 0.00 0.00 100 1014.8
20260902073019 14 360 0.0 0.0 0.00 0.00 0.00 100 1014.7
20260902072513 14 360 0.0 0.0 0.00 0.00 0.00 100 1014.8
20260902072013 14 360 0.0 0.0 0.00 0.00 0.00 100 1014.6
20260902071517 14 360 0.0 0.0 0.00 0.00 0.00 100 1014.7
20260902071010 14 360 0.0 0.0 0.00 0.00 0.00 100 1014.6
20260902070511 15 360 0.0 0.0 0.00 0.00 0.00 100 1014.6
20260902070008 15 360 0.0 0.0 0.00 0.00 0.00 100 1014.6
20260902065506 15 360 0.0 0.0 0.00 0.00 0.00 100 1014.5
20260902065005 15 360 0.0 0.0 0.00 0.00 0.00 100 1014.5
20260902064503 15 360 0.0 0.0 0.00 0.00 0.00 100 1014.6
20260902064002 15 360 0.0 0.0 0.00 0.00 0.00 100 1014.5
20260902063600 15 360 0.0 0.0 0.00 0.00 0.00 100 1014.4
20260902063059 15 360 0.0 0.0 0.00 0.00 0.00 100 1014.3
20260902062600 15 360 0.0 0.0 0.00 0.00 0.00 100 1014.2
20260902062055 15 360 0.0 0.0 0.00 0.00 0.00 100 1014.2
20260902061607 15 360 0.0 0.0 0.00 0.00 0.00 100 1014.1
20260902061053 15 360 0.0 0.0 0.00 0.00 0.00 100 1014.1
20260902060551 15 360 0.0 0.0 0.00 0.00 0.00 100 1014.1
20260902060050 15 360 0.0 0.0 0.00 0.00 0.00 100 1014.1
20260902055548 15 360 0.0 0.0 0.00 0.00 0.00 100 1014.1
20260902055047 15 360 0.0 0.0 0.00 0.00 0.00 100 1014.1
20260902054550 15 360 0.0 0.0 0.00 0.00 0.00 100 1014.1
20260902054044 15 360 0.0 0.0 0.00 0.00 0.00 100 1014.2
20260902053542 15 360 0.0 0.0 0.00 0.00 0.00 100 1014.2
20260902053043 15 360 0.0 0.0 0.00 0.00 0.00 100 1014.2
20260902052540 15 360 0.0 0.0 0.00 0.00 0.00 100 1014.2
20260902052038 15 360 0.0 0.0 0.00 0.00 0.00 100 1014.1
20260902051537 15 360 0.0 0.0 0.00 0.00 0.00 100 1014.2
20260902051035 16 360 0.0 0.0 0.00 0.00 0.00 100 1014.2
20260902050534 16 360 0.0 0.0 0.00 0.00 0.00 100 1014.2
20260902050032 16 360 0.0 0.0 0.00 0.00 0.00 100 1014.2
20260902045533 16 360 0.0 0.0 0.00 0.00 0.00 100 1014.2
20260902045029 16 360 0.0 0.0 0.00 0.00 0.00 100 1014.2
20260902044527 16 360 0.0 0.0 0.00 0.00 0.00 100 1014.2
20260902044027 16 360 0.0 0.0 0.00 0.00 0.00 100 1014.1
20260902043524 16 0.0 0.0 0.00 0.00 0.00 100 1014.0
20260902043027 16 360 0.0 0.0 0.00 0.00 0.00 100 1014.0
20260902042521 16 360 0.0 0.0 0.00 0.00 0.00 100 1013.9
20260902042021 17 360 0.0 0.0 0.00 0.00 0.00 100 1013.9
20260902041518 17 360 0.0 0.0 0.00 0.00 0.00 100 1013.9
20260902041017 17 360 0.0 0.0 0.00 0.00 0.00 100 1013.8
20260902040518 17 0.0 0.0 0.00 0.00 0.00 100 1013.9
20260902040014 17 0.0 0.0 0.00 0.00 0.00 100 1013.7
20260902035512 17 0.0 0.0 0.00 0.00 0.00 100 1013.7
20260902035011 17 0.0 0.0 0.00 0.00 0.00 100 1013.6
20260902034510 17 0.0 0.0 0.00 0.00 0.00 100 1013.6
20260902034008 17 0.0 0.0 0.00 0.00 0.00 100 1013.5
20260902033507 17 0.0 0.0 0.00 0.00 0.00 100 1013.6
20260902033005 17 0.0 0.0 0.00 0.00 0.00 100 1013.4
20260902032504 18 0.0 0.0 0.00 0.00 0.00 100 1013.4
20260902032002 18 0.0 0.0 0.00 0.00 0.00 100 1013.4
20260902031502 18 0.0 0.0 0.00 0.00 0.00 100 1013.4
20260902031059 18 0.0 0.0 0.00 0.00 0.00 100 1013.3
20260902031002 18 0.0 0.0 0.00 0.00 0.00 100 1013.3
20260902030602 18 0.0 0.0 0.00 0.00 0.00 100 1013.2
20260902030056 18 0.0 0.0 0.00 0.00 0.00 100 1013.2
20260902025555 18 0.0 0.0 0.00 0.00 0.00 100 1013.2
20260902025055 18 0.0 0.0 0.00 0.00 0.00 100 1013.1
20260902024552 18 0.0 0.0 0.00 0.00 0.00 100 1013.0
20260902024050 18 0.0 0.0 0.00 0.00 0.00 100 1012.9